Location: Unspecified
(32.5099°N, 80.0190°W)
Time: 23:54:59
(UTC-04:00)

CZ-3 Stage 3 - Visible Passes

Search period start: 21 August 2014 00:00
Search period end: 31 August 2014 00:00
Orbit: 413 x 34837 km, 30.7° (Epoch: 20 August)

Date Brightness Start Highest point End Pass type
(mag) Time Alt. Az. Time Alt. Az. Time Alt. Az.
22 Aug 7.4 00:52:48 10° S 09:39:07 59° SSE 09:51:55 10° E visible
23 Aug 9.1 01:07:42 10° SE 05:20:56 32° SE 06:09:52 10° E visible
25 Aug 7.3 00:53:53 10° S 09:37:49 61° SSE 09:50:03 10° E visible
26 Aug 9.1 00:51:16 10° SE 05:21:03 34° SE 06:08:55 10° E visible
28 Aug 7.2 00:54:27 10° S 09:36:23 63° SSE 09:48:05 10° E visible
29 Aug 9.1 00:35:03 10° SE 05:21:04 37° SE 06:07:45 10° E visible
